| time (UTC) | temp C | wind direction | speed KPH | gust KPH | rain 1hr cm | rain 24hr cm | rain mn cm | humidity % | barometer mb |
| 20260831224608 | 24 | 2 | 1.6 | 3.2 | 0.00 | 1.70 | 1.70 | 84 | 1017.9 |
| 20260831223037 | 24 | 162 | 0.0 | 3.2 | 0.00 | 1.70 | 1.70 | 84 | 1017.9 |
| 20260831221507 | 24 | 208 | 0.0 | 4.8 | 0.00 | 1.70 | 1.70 | 82 | 1018.0 |
| 20260831220046 | 25 | 39 | 1.6 | 4.8 | 0.00 | 1.70 | 1.70 | 82 | 1018.2 |
| 20260831214512 | 25 | 213 | 0.0 | 4.8 | 0.00 | 1.70 | 1.70 | 80 | 1018.2 |
| 20260831213059 | 25 | 257 | 1.6 | 9.7 | 0.00 | 1.70 | 1.70 | 80 | 1018.1 |
| 20260831211526 | 25 | 9 | 1.6 | 8.0 | 0.00 | 1.70 | 1.70 | 79 | 1018.2 |
| 20260831210128 | 25 | 21 | 1.6 | 6.4 | 0.00 | 1.70 | 1.70 | 81 | 1018.1 |
| 20260831204538 | 25 | 30 | 1.6 | 8.0 | 0.00 | 1.70 | 1.70 | 80 | 1018.1 |
| 20260831203014 | 25 | 163 | 3.2 | 9.7 | 0.00 | 1.70 | 1.70 | 80 | 1018.1 |
| 20260831201600 | 25 | 354 | 1.6 | 12.9 | 0.00 | 1.70 | 1.70 | 79 | 1018.1 |
| 20260831200024 | 25 | 248 | 1.6 | 8.0 | 0.00 | 1.70 | 1.70 | 80 | 1018.4 |
| 20260831194626 | 25 | 214 | 1.6 | 9.7 | 0.00 | 1.70 | 1.70 | 80 | 1018.3 |
| 20260831193028 | 26 | 203 | 1.6 | 6.4 | 0.00 | 1.70 | 1.70 | 77 | 1018.3 |
| 20260831191612 | 26 | 214 | 1.6 | 6.4 | 0.00 | 1.70 | 1.70 | 76 | 1018.5 |
| 20260831190047 | 26 | 198 | 0.0 | 6.4 | 0.00 | 1.70 | 1.70 | 76 | 1018.6 |
| 20260831184519 | 26 | 299 | 0.0 | 6.4 | 0.00 | 1.70 | 1.70 | 77 | 1018.5 |
| 20260831183103 | 26 | 207 | 0.0 | 4.8 | 0.00 | 1.70 | 1.70 | 76 | 1018.6 |
| 20260831181529 | 26 | 229 | 1.6 | 9.7 | 0.00 | 1.70 | 1.70 | 74 | 1018.7 |
| 20260831180112 | 26 | 149 | 1.6 | 6.4 | 0.00 | 1.70 | 1.70 | 75 | 1018.8 |
| 20260831174536 | 26 | 14 | 0.0 | 4.8 | 0.00 | 1.70 | 1.70 | 76 | 1018.9 |
| 20260831173008 | 26 | 243 | 1.6 | 6.4 | 0.00 | 1.70 | 1.70 | 77 | 1018.9 |
| 20260831171551 | 26 | 25 | 1.6 | 8.0 | 0.00 | 1.70 | 1.70 | 76 | 1018.8 |
| 20260831170024 | 26 | 219 | 1.6 | 4.8 | 0.00 | 1.70 | 1.70 | 74 | 1018.9 |
| 20260831164611 | 27 | 13 | 0.0 | 6.4 | 0.00 | 1.70 | 1.70 | 75 | 1018.9 |
| 20260831163031 | 26 | 7 | 1.6 | 4.8 | 0.00 | 1.70 | 1.70 | 76 | 1018.9 |
| 20260831161607 | 26 | 223 | 1.6 | 6.4 | 0.00 | 1.70 | 1.70 | 77 | 1019.0 |
| 20260831160037 | 27 | 242 | 0.0 | 8.0 | 0.00 | 1.70 | 1.70 | 75 | 1019.0 |
| 20260831154510 | 27 | 67 | 3.2 | 9.7 | 0.00 | 1.70 | 1.70 | 75 | 1019.0 |
| 20260831153049 | 26 | 219 | 1.6 | 8.0 | 0.00 | 1.70 | 1.70 | 78 | 1019.1 |
| 20260831151524 | 27 | 210 | 3.2 | 8.0 | 0.00 | 1.70 | 1.70 | 76 | 1019.2 |
| 20260831150109 | 26 | 218 | 0.0 | 8.0 | 0.00 | 1.70 | 1.70 | 79 | 1019.1 |
| 20260831144544 | 26 | 18 | 0.0 | 8.0 | 0.00 | 1.70 | 1.70 | 79 | 1019.2 |
| 20260831143009 | 25 | 224 | 1.6 | 6.4 | 0.00 | 1.70 | 1.70 | 81 | 1019.0 |
| 20260831141557 | 25 | 25 | 0.0 | 8.0 | 0.00 | 1.70 | 1.70 | 83 | 1019.0 |
| 20260831140020 | 25 | 220 | 0.0 | 3.2 | 0.00 | 1.70 | 1.70 | 84 | 1018.9 |
| 20260831134556 | 25 | 350 | 1.6 | 6.4 | 0.00 | 1.70 | 1.70 | 85 | 1019.0 |
| 20260831133030 | 24 | 238 | 0.0 | 4.8 | 0.00 | 1.70 | 1.70 | 86 | 1019.0 |
| 20260831131600 | 23 | 347 | 0.0 | 3.2 | 0.00 | 1.70 | 1.70 | 88 | 1019.2 |
| 20260831130032 | 23 | 13 | 1.6 | 4.8 | 0.00 | 1.70 | 1.70 | 90 | 1019.1 |
| 20260831124509 | 23 | 255 | 1.6 | 4.8 | 0.00 | 1.70 | 1.70 | 91 | 1019.0 |
| 20260831123043 | 22 | 191 | 0.0 | 3.2 | 0.00 | 1.70 | 1.70 | 91 | 1019.1 |
| 20260831121515 | 22 | 240 | 0.0 | 1.6 | 0.00 | 1.70 | 1.70 | 91 | 1018.9 |
| 20260831120048 | 22 | 29 | 0.0 | 3.2 | 0.00 | 1.70 | 1.70 | 92 | 1018.7 |
| 20260831114531 | 22 | 200 | 0.0 | 3.2 | 0.00 | 1.70 | 1.70 | 92 | 1018.8 |
| 20260831113056 | 22 | 251 | 0.0 | 3.2 | 0.00 | 1.70 | 1.70 | 92 | 1018.7 |
| 20260831111506 | 22 | 213 | 0.0 | 1.6 | 0.00 | 1.70 | 1.70 | 92 | 1018.5 |
| 20260831110045 | 22 | 302 | 0.0 | 0.0 | 0.00 | 1.70 | 1.70 | 92 | 1018.5 |
| 20260831104519 | 22 | 324 | 0.0 | 0.0 | 0.00 | 1.70 | 1.70 | 92 | 1018.3 |
| 20260831103103 | 22 | 325 | 0.0 | 0.0 | 0.00 | 1.70 | 1.70 | 93 | 1018.4 |
| 20260831101526 | 22 | 200 | 0.0 | 0.0 | 0.00 | 1.70 | 1.70 | 92 | 1018.2 |
| 20260831100108 | 22 | 200 | 0.0 | 0.0 | 0.00 | 1.70 | 1.70 | 92 | 1017.8 |
| 20260831094536 | 22 | 162 | 0.0 | 0.0 | 0.00 | 1.70 | 1.70 | 92 | 1017.7 |
| 20260831093008 | 22 | 162 | 0.0 | 0.0 | 0.00 | 1.70 | 1.70 | 92 | 1017.8 |
| 20260831091552 | 21 | 162 | 0.0 | 0.0 | 0.00 | 1.70 | 1.70 | 92 | 1017.6 |
| 20260831090014 | 22 | 162 | 0.0 | 0.0 | 0.03 | 1.70 | 1.70 | 91 | 1017.4 |
| 20260831084551 | 22 | 162 | 0.0 | 0.0 | 0.18 | 1.70 | 1.70 | 91 | 1017.5 |
| 20260831083035 | 22 | 164 | 0.0 | 0.0 | 0.33 | 1.70 | 1.70 | 92 | 1017.5 |
| 20260831081605 | 22 | 250 | 0.0 | 4.8 | 0.36 | 1.70 | 1.70 | 92 | 1017.5 |
| 20260831080031 | 22 | 238 | 0.0 | 3.2 | 0.33 | 1.68 | 1.68 | 91 | 1017.5 |
| 20260831074503 | 22 | 18 | 1.6 | 11.3 | 1.45 | 1.50 | 1.50 | 91 | 1017.8 |
| 20260831073054 | 22 | 202 | 1.6 | 8.0 | 1.37 | 1.37 | 1.37 | 91 | 1017.9 |
| 20260831071524 | 22 | 233 | 0.0 | 8.0 | 1.35 | 1.35 | 1.35 | 90 | 1017.9 |
| 20260831064535 | 23 | 222 | 0.0 | 3.2 | 0.00 | 0.00 | 0.00 | 87 | 1017.9 |
| 20260831063002 | 23 | 240 | 0.0 | 4.8 | 0.00 | 0.00 | 0.00 | 87 | 1018.1 |
| 20260831061550 | 23 | 267 | 0.0 | 3.2 | 0.00 | 0.00 | 0.00 | 86 | 1018.3 |
| 20260831060012 | 23 | 15 | 0.0 | 3.2 | 0.00 | 0.00 | 0.00 | 89 | 1018.2 |
| 20260831054551 | 23 | 72 | 0.0 | 0.0 | 0.00 | 0.00 | 0.00 | 88 | 1017.9 |
| 20260831053020 | 23 | 72 | 0.0 | 0.0 | 0.00 | 0.00 | 0.00 | 88 | 1018.1 |
| 20260831051602 | 23 | 72 | 0.0 | 1.6 | 0.00 | 0.00 | 0.00 | 88 | 1017.9 |
| 20260831050045 | 23 | 154 | 0.0 | 4.8 | 0.00 | 0.00 | 0.00 | 88 | 1017.8 |
| 20260831044504 | 23 | 77 | 0.0 | 3.2 | 0.00 | 0.00 | 0.00 | 89 | 1017.9 |
| 20260831043044 | 23 | 158 | 0.0 | 1.6 | 0.00 | 0.00 | 0.00 | 89 | 1018.1 |
| 20260831041516 | 24 | 134 | 0.0 | 0.0 | 0.00 | 0.00 | 0.00 | 89 | 1018.1 |
| 20260831040058 | 24 | 153 | 0.0 | 4.8 | 0.00 | 0.00 | 0.00 | 89 | 1018.1 |
| 20260831034520 | 24 | 215 | 0.0 | 9.7 | 0.00 | 0.00 | 0.00 | 88 | 1018.1 |
| 20260831033104 | 24 | 138 | 3.2 | 8.0 | 0.00 | 0.00 | 0.00 | 88 | 1018.1 |
| 20260831031536 | 24 | 102 | 0.0 | 8.0 | 0.00 | 0.00 | 0.00 | 88 | 1018.2 |
| 20260831030006 | 24 | 139 | 1.6 | 8.0 | 0.00 | 0.00 | 0.00 | 87 | 1018.3 |
| 20260831024608 | 24 | 165 | 0.0 | 11.3 | 0.00 | 0.00 | 0.00 | 87 | 1018.5 |
| 20260831023018 | 24 | 146 | 1.6 | 9.7 | 0.00 | 0.00 | 0.00 | 87 | 1018.6 |
| 20260831021602 | 25 | 83 | 1.6 | 6.4 | 0.00 | 0.00 | 0.00 | 86 | 1018.7 |
| 20260831020035 | 25 | 153 | 1.6 | 9.7 | 0.00 | 0.00 | 0.00 | 86 | 1018.6 |
| 20260831014611 | 25 | 154 | 3.2 | 9.7 | 0.00 | 0.00 | 0.00 | 85 | 1018.6 |
| 20260831013034 | 25 | 181 | 3.2 | 9.7 | 0.00 | 0.00 | 0.00 | 85 | 1018.8 |
| 20260831011515 | 25 | 78 | 3.2 | 16.1 | 0.00 | 0.00 | 0.00 | 85 | 1018.7 |
| 20260831010051 | 25 | 165 | 4.8 | 16.1 | 0.00 | 0.00 | 0.00 | 85 | 1018.6 |
| 20260831004519 | 25 | 164 | 8.0 | 19.3 | 0.00 | 0.00 | 0.00 | 85 | 1018.5 |
| 20260831003104 | 25 | 62 | 3.2 | 17.7 | 0.00 | 0.00 | 0.00 | 84 | 1018.3 |
| 20260831001539 | 25 | 152 | 6.4 | 17.7 | 0.00 | 0.00 | 0.00 | 84 | 1018.4 |
| 20260831000114 | 25 | 163 | 1.6 | 16.1 | 0.00 | 0.00 | 0.00 | 84 | 1018.3 |
| 20260830234607 | 25 | 39 | 6.4 | 14.5 | 0.00 | 0.00 | 0.00 | 83 | 1018.2 |
| 20260830233021 | 25 | 91 | 8.0 | 22.5 | 0.00 | 0.00 | 0.00 | 82 | 1018.3 |
| 20260830231603 | 25 | 211 | 4.8 | 16.1 | 0.00 | 0.00 | 0.00 | 81 | 1018.3 |
| 20260830230034 | 25 | 127 | 3.2 | 16.1 | 0.00 | 0.00 | 0.00 | 81 | 1018.5 |